Weather History for Prague, Czech Republic

Change the Weather History Date:

Wednesday, January 2, 2013

  Actual Average Record
Temperature  
Mean Temperature 36 °F -  
Max Temperature 40 °F 33 °F 51 °F (2012)
Min Temperature 32 °F 22 °F 12 °F (1997)
Degree Days  
Heating Degree Days 29    
Moisture  
Dew Point 31 °F    
Average Humidity 79    
Maximum Humidity 93    
Minimum Humidity 60    
Precipitation  
Precipitation 0.00 in 0.03 in - ()
Sea Level Pressure  
Sea Level Pressure 30.12 in    
Wind  
Wind Speed 12 mph ()    
Max Wind Speed 21 mph    
Max Gust Speed -    
Visibility 6.7 miles    
Events      
Averages and records for this station are not official NWS values.
T = Trace of Precipitation, MM = Missing Value Source: Averaged Metar Reports

Daily Weather History Graph

Daily Weather History Graph

Search for Another Location

Airport:

Trip Planner

Search our weather history database for the weather conditions in past years. The results will help you decide how hot, cold, wet, or windy it might be!

Date:

Astronomy

Jan. 02, 2013 Rise Set
Actual Time 8:01 AM CET 4:12 PM CET
Civil Twilight 7:23 AM CET 4:50 PM CET
Nautical Twilight 6:42 AM CET 5:32 PM CET
Astronomical Twilight 6:02 AM CET 6:11 PM CET
Moon 10:01 PM CET (1/2) 10:03 AM CET (1/2)
Length of Visible Light 9h 27m
Length of Day
8h 10m
Waning Gibbous, 77% of the Moon is Illuminated
Jan 2
Waning Gibbous
Jan 5
Last Quarter
Jan 11
New
Jan 19
First Quarter
Jan 27
Full

Hourly Weather History & Observations

Time (CET) Temp. Windchill Dew Point Humidity Pressure Visibility Wind Dir Wind Speed Gust Speed Precip Events Conditions
12:00 AM 41.0 °F 33.9 °F 37.4 °F 87% 29.86 in 6.2 mi SW 12.7 mph - N/A   Scattered Clouds
12:30 AM 41.0 °F 33.5 °F 37.4 °F 87% 29.86 in 6.2 mi SW 13.8 mph - N/A   Scattered Clouds
1:00 AM 40 °F - 36 °F 82% 29.91 in 16 mi WSW 6.7 mph - -   Overcast
1:00 AM 41.0 °F 34.7 °F 35.6 °F 81% 29.86 in 6.2 mi SW 10.4 mph - N/A   Partly Cloudy
1:30 AM 39.2 °F 33.0 °F 35.6 °F 87% 29.86 in 6.2 mi SW 9.2 mph - N/A   Partly Cloudy
2:00 AM 41.0 °F 35.2 °F 37.4 °F 87% 29.89 in 6.2 mi SSW 9.2 mph - N/A   Mostly Cloudy
2:30 AM 41.0 °F 34.3 °F 37.4 °F 87% 29.89 in 6.2 mi WSW 11.5 mph - N/A   Mostly Cloudy
3:00 AM 39.2 °F 31.6 °F 35.6 °F 87% 29.92 in 6.2 mi WNW 12.7 mph - N/A   Mostly Cloudy
3:30 AM 39.2 °F 33.0 °F 35.6 °F 87% 29.92 in 6.2 mi WNW 9.2 mph - N/A   Mostly Cloudy
4:00 AM 39.2 °F 32.0 °F 33.8 °F 81% 29.95 in 6.2 mi WNW 11.5 mph - N/A   Mostly Cloudy
4:30 AM 37.4 °F 32.1 °F 32.0 °F 81% 29.95 in 6.2 mi WNW 6.9 mph - N/A   Partly Cloudy
5:00 AM 35.6 °F 28.6 °F 32.0 °F 87% 29.98 in - West 9.2 mph - N/A   Clear
5:30 AM 33.8 °F 27.7 °F 30.2 °F 87% 29.98 in - WSW 6.9 mph - N/A   Clear
6:00 AM 33.8 °F 26.4 °F 30.2 °F 87% 29.98 in 6.2 mi WSW 9.2 mph - N/A   Partly Cloudy
6:30 AM 33.8 °F 27.0 °F 30.2 °F 87% 30.01 in 6.2 mi SW 8.1 mph - N/A   Partly Cloudy
7:00 AM 33 °F - 30 °F 84% 30.09 in 16 mi SW 8.9 mph - -   Partly Cloudy
7:00 AM 33.8 °F 25.8 °F 30.2 °F 87% 30.04 in 6.2 mi SW 10.4 mph - N/A   Partly Cloudy
7:30 AM 32.0 °F 23.6 °F 30.2 °F 93% 30.04 in 6.2 mi SSW 10.4 mph - N/A   Partly Cloudy
8:00 AM 32.0 °F 24.2 °F 30.2 °F 93% 30.04 in 6.2 mi SSW 9.2 mph - N/A   Partly Cloudy
8:30 AM 32.0 °F 23.6 °F 30.2 °F 93% 30.06 in 6.2 mi SSW 10.4 mph - N/A   Partly Cloudy
9:00 AM 33.8 °F 24.8 °F 30.2 °F 87% 30.09 in 6.2 mi SSW 12.7 mph - N/A   Partly Cloudy
9:30 AM 33.8 °F 25.3 °F 30.2 °F 87% 30.09 in 6.2 mi SW 11.5 mph - N/A   Partly Cloudy
10:00 AM 33.8 °F 23.9 °F 30.2 °F 87% 30.12 in 6.2 mi WSW 15.0 mph - N/A   Partly Cloudy
10:30 AM 35.6 °F 25.9 °F 30.2 °F 81% 30.12 in 6.2 mi SW 16.1 mph - N/A   Partly Cloudy
11:00 AM 37.4 °F 27.2 °F 30.2 °F 75% 30.12 in 6.2 mi SW 19.6 mph - N/A   Partly Cloudy
11:30 AM 39.2 °F 29.6 °F 30.2 °F 70% 30.12 in 6.2 mi SW 19.6 mph - N/A   Partly Cloudy
12:00 PM 39.2 °F 29.6 °F 30.2 °F 70% 30.12 in - SW 19.6 mph - N/A   Clear
12:30 PM 39.2 °F 29.8 °F 30.2 °F 70% 30.12 in - WSW 18.4 mph - N/A   Clear
1:00 PM 39 °F - 30 °F 60% 30.19 in 28 mi WSW 17.9 mph - -   Mostly Cloudy
1:00 PM 39.2 °F 29.6 °F 30.2 °F 70% 30.15 in - SW 19.6 mph - N/A   Clear
1:30 PM 39.2 °F 29.3 °F 30.2 °F 70% 30.15 in - SW 20.7 mph - N/A   Clear
2:00 PM 39.2 °F 29.6 °F 30.2 °F 70% 30.15 in 6.2 mi WSW 19.6 mph - N/A   Partly Cloudy
2:30 PM 39.2 °F 30.8 °F 30.2 °F 70% 30.18 in 6.2 mi WSW 15.0 mph - N/A   Scattered Clouds
3:00 PM 37.4 °F 29.3 °F 30.2 °F 75% 30.18 in 6.2 mi SW 12.7 mph - N/A   Partly Cloudy
3:30 PM 39.2 °F 31.6 °F 30.2 °F 70% 30.21 in 6.2 mi SW 12.7 mph - N/A   Mostly Cloudy
4:01 PM 37.4 °F 30.8 °F 32.0 °F 81% 30.21 in 6.2 mi WSW 9.2 mph - N/A   Mostly Cloudy
4:30 PM 39.2 °F 30.8 °F 30.2 °F 70% 30.24 in 6.2 mi WSW 15.0 mph - N/A   Mostly Cloudy
5:00 PM 39.2 °F 29.8 °F 30.2 °F 70% 30.24 in 6.2 mi WSW 18.4 mph - N/A   Mostly Cloudy
5:30 PM 37.4 °F 27.2 °F 30.2 °F 75% 30.24 in 6.2 mi WSW 19.6 mph - N/A   Mostly Cloudy
6:00 PM 37.4 °F 28.9 °F 30.2 °F 75% 30.27 in - WSW 13.8 mph - N/A   Clear
6:30 PM 37.4 °F 28.9 °F 30.2 °F 75% 30.27 in 6.2 mi WSW 13.8 mph - N/A   Mostly Cloudy
7:00 PM 38 °F - 31 °F 66% 30.36 in 28 mi WSW 15.7 mph - -   Mostly Cloudy
7:00 PM 37.4 °F 28.2 °F 30.2 °F 75% 30.30 in 6.2 mi WSW 16.1 mph - N/A   Mostly Cloudy
7:30 PM 37.4 °F 27.8 °F 30.2 °F 75% 30.30 in 6.2 mi WSW 17.3 mph - N/A   Mostly Cloudy
8:00 PM 37.4 °F 27.8 °F 30.2 °F 75% 30.33 in 6.2 mi WSW 17.3 mph - N/A   Mostly Cloudy
8:30 PM 37.4 °F 27.8 °F 30.2 °F 75% 30.33 in 6.2 mi SW 17.3 mph - N/A   Mostly Cloudy
9:00 PM 35.6 °F 26.6 °F 30.2 °F 81% 30.33 in - SW 13.8 mph - N/A   Clear
9:30 PM 35.6 °F 25.5 °F 28.4 °F 75% 30.33 in - SW 17.3 mph - N/A   Clear
10:00 PM 37.4 °F 28.2 °F 30.2 °F 75% 30.36 in 6.2 mi SW 16.1 mph - N/A   Mostly Cloudy
10:30 PM 37.4 °F 27.5 °F 30.2 °F 75% 30.36 in 6.2 mi SW 18.4 mph - N/A   Mostly Cloudy
11:00 PM 37.4 °F 28.2 °F 30.2 °F 75% 30.36 in 6.2 mi SW 16.1 mph - N/A   Mostly Cloudy
11:30 PM 37.4 °F 27.8 °F 30.2 °F 75% 30.36 in 6.2 mi SW 17.3 mph - N/A   Mostly Cloudy